Hourly Data Report for September 18, 2020

BRIER ISLAND
NOVA SCOTIA
Current Station Operator: ECCC - MSC

44°17'09.000" N
66°20'48.000" W
15.80 m
8200604
71988
WVU

Download Data

Hourly Data (September 2020)
Hourly Data Report for September 18, 2020
TIME Temp Definition
°C
Dew Point Definition
°C
Rel Hum Definition
%
Wind Dir Definition
10's deg

Wind Spd Definition
km/h
Visibility Definition
km
Stn Press Definition
kPa
Hmdx Definition


Wind Chill Definition


Weather Definition


00:00 12.5 LegendMM LegendMM 23 2   101.39     LegendNANA
01:00 12.8 LegendMM LegendMM 6 3   101.40     LegendNANA
02:00 13.7 LegendMM LegendMM 7 11   101.38     LegendNANA
03:00 12.8 LegendMM LegendMM 2 13   101.34     LegendNANA
04:00 12.6 LegendMM LegendMM 1 21   101.33     LegendNANA
05:00 12.5 12.5 100 2 22   101.32     LegendNANA
06:00 13.0 13.0 100 4 14   101.33     LegendNANA
07:00 12.5 12.5 100 1 14   101.37     LegendNANA
08:00 12.7 12.7 100 2 16   101.36     LegendNANA
09:00 12.8 12.8 100 2 23   101.35     LegendNANA
10:00 12.8 12.5 98 1 28   101.32     LegendNANA
11:00 12.4 12.0 98 1 29   101.28     LegendNANA
12:00 12.9 12.4 97 1 35   101.20     LegendNANA
13:00 12.4 12.4 100 36 27   101.19     LegendNANA
14:00 11.3 LegendMM LegendMM 35 35   101.14     LegendNANA
15:00 11.6 11.6 100 1 40   101.12     LegendNANA
16:00 11.3 11.3 100 1 45   101.12     LegendNANA
17:00 10.9 10.9 100 2 50   101.10     LegendNANA
18:00 10.8 10.8 100 1 48   101.13     LegendNANA
19:00 11.0 11.0 100 1 47   101.16     LegendNANA
20:00 11.0 10.9 99 2 47   101.24     LegendNANA
21:00 11.0 10.7 98 2 47   101.27     LegendNANA
22:00 10.8 10.6 98 2 36   101.31     LegendNANA
23:00 11.0 10.2 95 2 41   101.36     LegendNANA

Notes on Data Quality.

Legend

  • E = Estimated
  • M = Missing
  • NA = Not Available*
  • [empty] = Indicates an unobserved value
Date modified: